2011 RC17

Japanese version
Home page
Updated on December 8, 2011

---------------------------------------------------------------------

* Profile

Discovery Date September 2, 2011
Magnitude 19.5 mag
Discoverer Leonid Elenin (ISON-NM Observatory, Mayhill)

* Pictures

* Orbital Elements

Epoch 2011 Aug. 27.0 TT = JDT 2455800.5                 MPC
M 356.38280              (2000.0)            P               Q
n   0.06169726     Peri.  194.08376     +0.68512878     -0.72059472
a   6.3429626      Node   212.87212     +0.68586932     +0.68741208
e   0.5397917      Incl.   11.31561     +0.24531986     +0.09059733
P  15.97           H   15.1           G   0.15           U   3

* Magnitudes Graph

        H = 15.1  G = 0.15

---------------------------------------------------------------------

The orbital elements are published on M.P.E.C. 2011-W34.
The magnitudes graphs are made with Comet for Windows.

---------------------------------------------------------------------

Copyright(C) Seiichi Yoshida (comet@aerith.net). All rights reserved.